[Date Prev][Date Next][Thread Prev][Thread Next] - [Date Index][Thread Index][Author Index]

2 Line ISS Keps 1-22



ISS
1 25544U 98067A   04022.37666840  .00024453  00000-0  23696-3 0   547
2 25544  51.6308 352.9436 0008142  77.5229  83.7218 15.66197587295284



----
Via the sarex mailing list at AMSAT.ORG courtesy of AMSAT-NA.
To unsubscribe, send "unsubscribe sarex" to Majordomo@amsat.org



AMSAT Top AMSAT Home